Find STARLINK-37556

NORAD ID: 799501011 Int'l Des: 2026-143M Constellation: starlink operational

当前视图

正在加载3D地球...

About STARLINK-37556

STARLINK-37556 (NORAD 799501011) is a starlink constellation satellite launched Jun 15, 2026

关于 STARLINK-37556

正在加载描述...

即将过境

Passes for default location (London). Set your location on the main map for personalized predictions.

高度历史

Loading altitude history...

两行轨道根数

1 99999C 2026143M 26173.13937500 .00330590 00000-0 505630-4 0 1737
2 99999 97.2821 215.9965 0011103 274.3467 263.5020 16.04098394 15
Epoch: Jun 22, 2026 • Age: 5 hours